OKEAN-O

Last updated on Thu Oct 30 2025 00:02:15 GMT+0000 (Coordinated Universal Time)

1 25860U 99039A 25302.44143993 .00001014 00000+0 14087-3 0 9998 2 25860 97.9666 358.5138 0001822 78.0460 282.0956 14.80048706414972
UTC large
Height (km)
Speed (km/s)
/
Latitude / Longitude
Inclination (degrees)
Orbital Period (minutes)
Azimuth
Elevation
Range (km)
Doppler Factor

Next 0 passes for location: London (51.5072 / 0.1276)

Sorry there are no passes over London.